Location: Unspecified
(0.0000°N, 0.0000°E)
Time: 20:12:24
(UTC+00:00)

Tiangong 1 - Pass Details

Date: 17 January 2017
Orbit: 337 x 361 km, 42.8° (Epoch: 01 March)

Event Time Altitude Azimuth Distance (km) Brightness Sun altitude
Rises 18:38:18 0° 229° (SW) 2,182 6.5 -6.6°
Reaches altitude 10° 18:40:22 10° 232° (SW) 1,328 5.2 -7.0°
Maximum altitude 18:43:19 65° 315° (NW) 390 1.2 -7.7°
Drops below altitude 10° 18:46:16 10° 37° (NE) 1,321 3.3 -8.4°
Enters shadow 18:46:28 - 38° (NE) 1,402 3.4 -8.5°
